Regional Weather Roundup
Issued by NWS Cleveland, OH

Home | Current Version | Previous Version | Graphics & Text | Print | Product List | Glossary On
Versions: 1 2 3 4 5 6 7 8 9 10 11 12 13 14 15 16 17 18 19 20 21 22 23 24 25 26 27 28 29 30 31 32 33 34 35 36 37 38 39 40 41 42 43 44 45 46 47 48 49 50
488
ASUS41 KCLE 230810
RWRCLE
OHIO REGIONAL WEATHER ROUNDUP
NATIONAL WEATHER SERVICE WILMINGTON, OH
400 AM EDT THU MAR 23 2017

NOTE: "FAIR" INDICATES FEW OR NO CLOUDS BELOW 12,000 FEET WITH NO
SIGNIFICANT WEATHER AND/OR OBSTRUCTIONS TO VISIBILITY.

OHZ001>008-015>018-024>027-034-035-043-044-230900-
   NORTHWEST OHIO

CITY           SKY/WX    TMP DP  RH WIND       PRES   REMARKS
DEFIANCE       FAIR      21  15  78 E3        30.53S
FINDLAY        FAIR      23  14  68 E6        30.51S WCI  16
TOLEDO EXPRESS FAIR      20  15  81 CALM      30.53F
TOLEDO EXEC    FAIR      22  16  78 CALM      30.55F
LIMA           FAIR      22  17  81 E7        30.49F WCI  13
$$

OHZ009>014-019>023-028>033-038-089-230900-
   NORTHEAST OHIO

CITY           SKY/WX    TMP DP  RH WIND       PRES   REMARKS
CLE-HOPKINS    FAIR      20  13  74 CALM      30.57R
CLE-LAKEFRONT  FAIR      24  15  68 SE5       30.55R WCI  18
CUY CO. ARPT   NOT AVBL
LORAIN-ELYRIA  FAIR      19  14  81 CALM      30.54S
ASHTABULA      FAIR      18  15  88 CALM      30.54R
AKRON-CANTON   FAIR      22  10  60 CALM      30.51S
WOOSTER        FAIR      20  14  77 CALM      30.52S
MANSFIELD      FAIR      19  12  74 E6        30.50R WCI  11
YOUNGSTOWN     FAIR      17  12  80 CALM      30.51S
$$

OHZ042-051>053-060>062-070>072-077>081-230900-
  SOUTHWEST OHIO

CITY           SKY/WX    TMP DP  RH WIND       PRES   REMARKS
CINC-COVINGTON FAIR      30  19  63 E14       30.42F WCI  19
CINC-LUNKEN    FAIR      28  20  71 NE7       30.47F WCI  21
HAMILTON       FAIR      27  20  75 NE5       30.48F WCI  22
DAYTON         FAIR      24  17  74 E9        30.47F WCI  14
WRIGHT-PAT AFB FAIR      23  17  76 NE8       30.48S WCI  14
DAYTON GENERAL FAIR      26  18  71 E10       30.44F WCI  16
WILMINGTON     FAIR      26  19  74 E9        30.46S WCI  17
$$

OHZ036-037-039>041-045>050-054>059-063>069-073>076-082>088-230900-
  CENTRAL AND SOUTHEAST OHIO

CITY           SKY/WX    TMP DP  RH WIND       PRES   REMARKS
COLUMBUS       FAIR      24  13  62 E6        30.50F WCI  17
OSU AIRPORT    FAIR      21  14  74 E6        30.50S WCI  13
BOLTON FIELD   FAIR      25  15  66 E5        30.50S WCI  19
RICKENBACK AFB FAIR      23  15  72 NE7       30.50S WCI  14
NEWARK         FAIR      24  12  60 NE3       30.51S
MARION         FAIR      17  11  77 E5        30.51S WCI  10
LANCASTER      FAIR      26  15  63 NE6       30.50F WCI  19
ZANESVILLE     FAIR      24  10  55 NE3       30.51F
NEW PHILLY     FAIR      20  13  74 NE3       30.54S
$$




USA.gov is the U.S. government's official web portal to all federal, state and local government web resources and services.